Terminal Aerodrome Forecast
Issued by NWS Louisville, KY

Home | Current Version | Previous Version | Text Only | Print | Product List | Glossary On
Versions: 1 2 3 4 5 6 7 8 9 10 11 12 13 14 15 16 17 18 19 20 21 22 23 24 25 26 27
546
FTUS43 KLMK 302320
TAFLEX
TAF
KLEX 302320Z 3100/3124 30008KT P6SM VCTS BKN040CB OVC250
     FM310200 21003KT P6SM SCT250
     FM310800 22003KT 4SM BR SCT250
     FM311300 23004KT P6SM BKN015
     FM311500 25006KT P6SM BKN025=

USA.gov is the U.S. government's official web portal to all federal, state and local government web resources and services.